Location: Azul
(36.7830°S, 59.8500°W)
Time: 10:56:25
(UTC-03:00)

CUBESAT XI-V - Visible Passes

Search period start: 22 October 2021 00:00
Search period end: 01 November 2021 00:00
Orbit: 668 x 692 km, 98.1° (Epoch: 21 October)

Date Brightness Start Highest point End Pass type
(mag) Time Alt. Az. Time Alt. Az. Time Alt. Az.
22 Oct ? 03:31:31 10° SSE 03:35:59 72° ESE 03:35:59 72° ESE visible
22 Oct ? 05:11:50 10° SW 05:12:54 11° WSW 05:13:58 10° WSW visible
23 Oct ? 02:31:35 10° SE 02:33:59 16° E 02:33:59 16° E visible
23 Oct ? 04:07:34 10° S 04:12:06 44° WSW 04:12:25 43° W visible
24 Oct ? 03:06:16 10° SSE 03:10:24 39° E 03:10:24 39° E visible
24 Oct ? 04:44:21 10° SSW 04:47:43 19° WSW 04:48:49 18° W visible
25 Oct ? 03:41:53 10° S 03:46:41 83° WSW 03:46:49 82° WNW visible
26 Oct ? 02:41:27 10° SE 02:44:48 21° E 02:44:48 21° E visible
26 Oct ? 04:18:07 10° S 04:22:25 34° WSW 04:23:14 32° W visible
27 Oct ? 03:16:30 10° SSE 03:21:09 52° E 03:21:12 52° ENE visible
27 Oct ? 04:55:14 10° SSW 04:57:59 15° WSW 04:59:37 13° W visible
28 Oct ? 02:17:55 10° ESE 02:19:11 11° E 02:19:11 11° E visible
28 Oct ? 03:52:18 10° S 03:57:02 64° WSW 03:57:37 58° WNW visible
29 Oct ? 02:51:28 10° SE 02:55:32 27° E 02:55:35 27° E visible
29 Oct ? 04:28:44 10° SSW 04:32:43 27° WSW 04:34:00 24° W visible
30 Oct ? 03:26:47 10° SSE 03:31:33 68° ENE 03:31:59 63° NE visible
30 Oct ? 05:06:25 10° SW 05:08:13 12° WSW 05:10:01 10° W visible
31 Oct ? 02:27:09 10° ESE 02:29:50 15° E 02:29:58 15° E visible
31 Oct ? 04:02:46 10° S 04:07:22 49° WSW 04:08:23 42° WNW visible
